Temperature
14 15 15 15 18 18 19 19 19 18 18 16 16 17 18 18 18 17 13 13 13 13 13 13 13 13 13 13 13 13 13 13 13 13 13 13 13 14 13 14 14 14 14 14 14 14 14 14 14
14 15 15 16 18 19 18 18 18 18 16 14 14 15 16 15 13 12 12 13 13 13 13 13 13 13 13 13 13 13 13 13 13 13 13 13 13 13 13 13 13 13 14 14 14 14 14 14 14
14 14 15 17 17 19 19 18 17 16 14 14 15 14 15 14 11 11 12 12 12 12 12 12 12 13 13 13 13 13 13 13 13 13 13 13 13 13 13 13 13 13 13 13 13 13 13 13 14
14 14 15 17 17 17 17 17 16 15 14 13 14 14 12 11 11 11 12 12 12 12 12 12 12 12 12 12 12 13 13 13 13 13 13 13 13 13 13 13 13 13 13 13 13 13 13 13 13
13 15 16 16 16 17 16 15 15 16 15 14 14 15 12 11 11 12 12 12 11 11 11 12 12 12 12 12 12 12 12 12 12 12 12 12 12 12 12 12 13 13 13 13 13 13 13 13 13
14 16 16 16 17 16 15 14 14 15 15 13 13 14 12 11 11 12 11 11 11 11 11 11 11 11 12 12 12 12 12 12 12 12 12 12 12 12 12 12 12 13 13 13 13 13 13 13 13
14 15 16 16 16 16 15 13 14 15 14 13 12 14 11 10 11 11 11 11 10 11 11 11 11 11 11 12 12 12 12 12 12 12 12 12 12 12 12 12 12 12 12 12 12 12 12 12 12
13 15 15 15 15 15 14 12 12 13 13 11 11 13 12 10 10 10 10 10 10 10 10 11 11 11 11 11 11 11 12 12 12 12 12 12 12 12 12 12 12 12 12 12 12 12 12 12 12
12 14 14 15 15 15 13 12 11 10 10 9 9 10 10 10 10 10 10 10 10 10 10 10 10 10 11 11 11 11 11 11 12 11 11 11 11 11 11 11 11 12 12 12 12 12 12 12 12
12 13 14 14 14 14 12 12 11 10 11 10 9 9 9 9 9 9 9 10 10 10 10 10 10 10 10 10 11 11 11 11 11 11 11 11 11 11 11 11 11 11 11 11 12 12 12 12 12
12 13 12 12 11 11 11 10 10 11 11 10 9 9 9 9 9 9 9 9 9 9 9 9 9 10 10 10 10 10 11 11 11 11 11 11 11 11 11 11 11 11 11 11 11 11 11 11 11
11 10 11 10 9 9 10 10 9 9 10 9 9 9 8 9 9 9 9 9 8 8 9 9 9 9 9 10 10 10 10 10 10 10 10 10 10 10 10 10 10 10 10 11 11 11 11 11 11
10 10 9 8 8 8 8 9 9 8 8 8 8 8 8 8 8 8 8 8 8 8 8 9 9 9 9 9 9 9 10 10 10 10 10 10 10 10 10 10 10 10 10 10 10 10 10 10 10
10 9 9 8 8 8 8 8 8 8 7 7 7 7 7 7 8 8 8 8 8 8 8 8 8 8 8 9 9 9 9 9 9 9 9 10 10 10 10 10 10 10 10 10 10 10 10 10 10
8 9 9 9 8 8 8 9 9 8 7 7 7 7 7 7 7 7 7 7 8 7 7 7 7 8 8 8 8 8 9 9 9 9 9 9 9 9 9 9 9 9 9 9 9 9 9 9 9
9 10 10 9 8 8 9 10 10 7 7 7 7 6 6 6 6 7 7 7 7 7 7 7 7 7 7 7 8 8 8 8 8 8 8 8 8 9 9 9 9 9 9 9 9 9 8 8 8
9 10 10 9 8 8 9 9 9 6 6 7 6 6 5 5 6 6 6 7 6 6 6 7 7 7 7 7 7 7 7 7 8 8 8 8 8 8 8 8 8 8 8 8 8 8 8 8 8
10 10 9 9 8 8 8 8 8 6 6 6 6 5 5 5 5 6 6 6 6 6 6 6 6 6 6 6 7 7 6 7 7 7 7 7 7 8 8 8 7 8 8 8 8 8 8 7 7
9 9 9 9 8 7 8 8 8 6 6 6 6 5 5 4 4 5 5 5 5 5 5 6 6 6 6 6 6 6 6 6 6 7 7 7 7 7 7 7 7 7 7 7 7 7 7 7 7
8 8 8 8 7 7 7 7 8 6 6 5 5 5 4 4 4 4 4 5 5 5 5 5 5 5 5 6 6 6 6 6 6 6 6 6 6 6 7 7 7 7 7 7 7 7 7 7 6
7 8 8 7 7 6 6 8 8 7 5 4 4 4 3 3 3 3 3 4 4 5 5 5 5 5 5 5 5 5 5 5 5 5 6 6 6 6 6 6 6 6 6 6 7 6 6 6 6
7 7 7 6 7 8 7 8 8 7 5 5 4 3 3 2 2 3 3 3 4 4 4 4 4 4 4 4 5 5 5 5 5 5 5 5 5 5 5 5 6 6 6 6 6 6 6 6 6
6 6 6 6 6 6 7 6 8 6 5 5 4 3 3 2 2 2 2 3 3 3 4 4 3 4 4 4 4 4 4 4 4 4 5 5 5 5 5 5 5 5 5 5 5 5 5 5 5
5 5 5 5 6 6 7 7 8 7 6 6 4 3 2 2 2 2 2 2 2 3 3 3 3 3 3 3 3 4 4 4 4 4 4 4 4 4 4 4 4 5 5 5 5 5 5 5 5
5 6 7 7 6 7 5 5 7 6 5 4 4 3 2 1 1 1 2 2 2 2 2 2 2 3 3 3 3 3 3 3 3 3 3 4 4 4 4 4 4 4 4 4 4 4 4 4 4
5 5 6 7 7 8 5 6 7 4 3 2 2 1 1 1 1 1 1 1 1 1 2 2 2 2 2 2 2 2 2 2 3 3 3 3 3 3 3 3 3 3 3 4 4 4 4 4 4
4 5 5 5 4 5 6 6 5 3 3 2 2 1 0 0 0 0 0 1 1 1 1 1 2 2 2 2 2 2 2 2 2 2 2 2 3 3 3 3 3 3 3 3 3 3 3 3 3
4 4 4 5 5 6 6 6 6 4 4 3 2 1 0 -0 -0 -0 -0 -0 0 0 0 1 1 1 1 1 1 1 1 1 2 2 2 2 2 2 2 2 2 2 2 2 2 2 2 2 2
3 3 3 4 4 5 6 7 5 4 3 3 2 0 -0 -1 -1 -0 -0 -0 -0 -0 -0 0 0 0 1 1 1 1 1 1 1 1 1 1 2 2 2 2 2 2 2 2 2 2 2 2 2
2 3 3 4 3 3 4 6 3 2 2 1 1 -0 -1 -1 -1 -1 -1 -1 -1 -1 -1 -0 -0 -0 -0 0 0 0 1 1 1 1 1 1 1 1 1 1 1 1 1 1 1 1 1 1 1
Wind_Speed
1 0 1 2 4 5 9 7 5 4 4 2 2 2 3 3 1 1 3 2 2 5 6 7 6 7 8 9 9 9 8 9 8 8 8 8 8 9 9 10 10 11 11 12 13 13 14 15 15
1 1 2 3 6 9 8 7 7 5 2 3 3 3 3 2 1 3 2 2 2 5 6 6 7 7 9 9 9 9 8 8 8 8 8 8 8 9 9 9 9 10 11 12 13 13 14 14 15
2 1 3 4 7 11 8 4 4 3 3 3 3 2 2 1 1 1 2 2 3 5 6 7 7 7 8 9 9 9 8 8 8 8 8 8 8 8 8 9 9 10 11 12 13 13 13 14 14
3 3 3 6 11 10 7 2 2 4 4 3 3 3 2 2 1 2 2 3 4 5 5 7 7 8 8 9 9 9 8 8 8 8 8 8 8 9 9 9 10 10 10 11 12 13 13 13 13
2 4 6 9 12 9 6 3 3 4 4 3 4 4 3 2 3 3 3 4 4 4 4 6 7 7 8 8 8 9 8 8 8 8 8 8 9 9 9 9 10 9 10 11 12 12 13 13 13
4 4 8 12 13 9 6 4 5 5 4 2 3 4 3 2 2 3 4 4 4 4 4 5 6 7 7 8 8 8 8 8 8 8 8 8 9 9 9 10 10 10 11 11 12 12 13 12 12
5 6 9 11 11 9 6 5 6 6 6 4 3 4 3 2 1 2 4 4 5 5 5 5 4 5 7 7 8 8 9 9 9 9 9 9 9 9 10 10 10 10 11 11 12 12 12 11 12
3 4 8 10 11 10 5 5 3 5 5 2 2 4 3 2 1 3 4 4 4 4 4 4 4 4 5 6 7 8 9 9 9 9 9 9 9 9 10 9 10 11 11 11 12 12 12 12 12
3 6 10 11 9 7 5 5 3 1 3 2 2 2 2 3 4 5 4 3 3 3 3 3 4 4 4 4 6 7 7 8 8 8 8 8 7 8 8 9 11 11 11 11 11 12 12 11 11
5 9 11 7 6 5 4 4 4 5 5 4 3 1 1 5 6 6 6 5 4 3 2 2 2 3 3 3 4 4 5 6 6 6 6 6 6 6 7 10 11 11 11 11 11 11 10 8 8
5 8 7 5 4 4 4 4 4 6 6 7 7 5 4 6 7 7 6 6 5 4 3 2 2 3 3 2 2 3 4 4 5 5 5 5 6 5 6 6 7 8 8 8 8 8 7 6 6
4 5 5 4 3 3 4 4 4 6 6 4 4 5 7 7 7 7 7 5 5 4 3 2 2 2 2 3 2 3 3 3 3 4 5 5 4 4 4 4 5 5 4 5 5 5 7 7 7
7 5 3 3 2 2 4 6 6 7 6 3 1 4 6 7 7 7 6 5 4 4 3 2 2 1 2 2 2 2 3 3 3 4 4 5 4 4 4 4 4 4 4 5 5 6 7 6 6
4 4 4 4 5 4 5 6 6 8 5 4 4 5 5 6 6 5 5 5 5 4 4 3 2 2 2 2 2 2 3 3 4 3 4 5 4 4 4 4 3 4 5 5 6 6 6 6 6
4 4 4 4 5 4 4 7 9 8 5 5 5 5 5 5 5 6 6 6 6 5 4 4 3 2 3 3 2 2 3 4 4 3 4 4 5 5 4 4 4 4 5 6 6 7 6 6 6
4 6 6 4 4 4 6 10 6 4 6 6 5 5 5 5 5 5 5 5 5 5 4 4 2 3 2 2 2 2 3 4 4 4 4 4 5 5 4 4 4 4 5 5 5 5 5 5 4
5 6 8 5 3 3 7 9 5 3 5 6 6 5 5 5 5 5 4 4 4 4 4 4 3 3 3 2 2 2 2 3 3 4 4 3 4 4 4 3 3 4 4 4 5 5 5 5 5
6 7 7 7 2 4 7 10 7 5 5 6 6 5 5 6 5 4 4 4 3 3 3 3 3 2 2 2 2 2 1 2 2 3 4 4 3 4 4 3 4 4 4 4 4 5 5 5 5
6 7 8 7 3 5 9 11 9 7 6 7 6 5 5 5 4 3 3 3 3 3 3 3 3 2 2 2 3 2 2 2 2 2 4 4 4 4 3 3 4 4 4 5 6 5 6 5 5
6 7 8 6 3 5 8 11 9 7 7 6 5 4 4 4 3 2 2 2 3 3 3 4 4 4 4 3 3 2 2 2 1 2 3 4 4 4 3 3 3 4 4 5 6 6 4 3 4
7 8 8 7 4 5 6 9 8 6 4 4 4 4 3 4 4 3 2 2 3 3 4 4 4 4 4 3 2 2 1 1 2 2 2 3 4 4 3 4 4 4 4 5 6 6 6 5 4
7 5 7 7 6 5 4 7 6 5 5 5 5 4 3 3 3 3 3 3 3 3 3 4 4 4 4 4 4 5 4 4 4 3 3 3 4 4 3 4 4 4 4 5 6 6 5 7 6
5 3 4 6 7 7 6 7 6 4 5 6 6 5 3 3 3 3 3 3 3 3 3 3 4 4 4 4 5 5 5 3 3 3 4 4 3 4 4 4 4 4 4 5 6 6 6 5 6
2 1 2 3 4 7 8 8 7 5 6 5 4 4 2 2 2 2 2 1 2 2 2 2 3 3 4 4 5 6 6 5 4 4 4 4 3 3 4 4 4 4 3 4 6 6 7 6 6
2 2 3 3 5 6 3 7 7 2 3 4 4 3 2 1 1 2 2 2 2 2 2 3 3 3 4 4 5 5 6 6 6 5 5 5 4 3 4 4 4 4 4 4 5 6 6 6 6
4 5 4 4 5 4 3 7 3 1 2 3 3 2 2 2 2 2 3 2 2 2 2 3 4 4 4 5 5 5 5 4 4 5 4 5 5 4 4 5 5 5 5 4 4 5 6 6 6
3 4 3 3 4 6 6 5 4 2 3 2 2 2 2 3 3 3 3 3 3 3 3 3 4 4 4 4 5 5 5 5 5 5 5 5 4 4 5 5 5 5 5 5 5 4 6 6 6
2 2 2 4 4 6 6 6 5 4 4 3 2 2 3 3 4 4 4 3 3 3 3 3 3 4 4 4 4 4 5 5 5 5 6 6 5 5 5 5 5 5 5 5 5 4 6 6 5
3 3 3 4 4 5 6 4 1 3 3 3 3 3 4 4 5 5 4 4 3 3 3 2 3 3 3 4 4 4 5 5 5 5 6 6 5 6 6 6 6 6 6 6 5 5 5 7 6
4 4 5 5 5 5 6 5 2 1 2 3 4 4 5 5 4 4 4 4 3 3 3 3 3 3 4 4 4 4 4 5 5 6 6 6 6 6 6 7 7 7 7 7 7 7 6 7 8
Wind_Direction
329 325 213 211 206 219 231 226 220 197 198 193 165 186 185 198 209 85 57 85 112 142 150 150 136 131 133 129 125 120 118 118 116 114 113 109 103 100 98 95 92 90 91 91 90 88 89 88 87
268 208 191 208 226 223 225 224 217 207 168 158 171 182 173 176 41 67 83 86 126 138 143 146 132 125 129 127 124 122 119 118 116 115 113 111 106 103 100 95 93 93 94 94 92 88 88 87 87
185 231 196 198 226 232 223 203 212 188 170 181 173 190 211 142 125 103 50 115 135 132 138 133 127 124 123 125 124 121 121 118 117 116 113 110 108 106 103 97 96 96 96 97 95 92 90 90 90
192 176 194 218 225 232 240 223 186 176 181 201 190 161 152 62 40 38 77 118 125 124 130 131 126 125 119 120 122 121 121 119 118 119 116 113 109 105 104 100 98 98 98 100 100 97 94 93 91
202 197 204 222 231 231 234 241 199 202 188 186 199 196 160 104 40 61 104 119 120 106 118 132 125 125 123 121 125 122 118 115 114 117 118 116 112 108 106 103 100 98 101 102 105 104 100 96 94
185 204 216 227 229 229 226 223 218 225 211 197 205 213 179 102 62 83 113 118 109 104 93 119 126 125 123 123 121 123 119 114 109 108 113 113 112 110 107 107 102 99 102 105 108 106 104 101 98
205 209 228 233 234 232 226 212 223 224 221 223 235 211 175 152 55 110 116 110 97 93 89 87 106 132 124 122 119 120 118 112 104 99 101 102 107 109 107 105 103 100 101 106 109 106 104 102 101
222 210 227 231 234 238 217 202 228 237 229 234 224 218 208 192 141 130 119 111 99 89 83 80 83 103 131 131 118 115 117 110 105 99 97 98 100 104 104 104 104 101 101 105 107 106 103 100 97
198 221 229 227 228 231 195 200 200 222 187 183 212 282 351 130 146 140 129 119 110 95 86 83 83 88 95 123 119 114 114 111 111 105 99 104 108 108 108 100 102 101 101 101 105 105 103 100 96
202 227 235 236 233 222 192 211 201 191 203 212 216 249 120 149 159 161 163 167 164 150 128 97 91 92 96 94 123 127 124 122 121 121 119 116 110 104 104 99 96 98 100 101 100 100 102 104 107
206 229 230 234 235 231 210 215 216 220 233 235 233 219 176 169 175 183 185 185 183 177 167 153 117 108 105 99 105 117 126 126 126 125 121 119 112 107 110 112 107 104 104 104 105 104 102 98 105
209 231 235 238 228 224 222 215 221 231 247 280 255 199 176 179 187 195 196 193 189 184 185 181 139 117 115 122 121 125 124 126 126 132 133 130 118 111 112 117 118 117 114 110 108 104 100 96 101
217 228 236 230 194 220 220 225 239 246 255 263 193 174 184 187 193 198 199 193 192 192 190 189 171 134 113 118 131 131 138 136 131 134 140 137 128 125 119 112 117 119 116 119 114 109 104 99 97
210 216 238 253 239 233 233 246 236 248 248 227 192 194 197 198 198 195 197 199 202 204 200 193 190 170 143 125 140 143 139 134 131 127 139 140 136 133 127 120 116 120 120 122 121 117 111 104 98
201 224 247 248 238 226 237 253 238 248 229 218 204 201 203 209 208 208 209 208 208 207 203 199 193 180 169 153 146 137 136 140 135 126 139 142 138 140 134 134 126 120 126 125 121 117 114 105 98
207 226 240 235 233 223 224 253 247 249 224 228 223 214 213 213 217 221 219 216 209 204 201 197 188 183 177 154 148 134 137 137 137 130 132 142 142 140 137 137 136 132 139 137 128 130 124 116 109
209 231 240 241 224 219 220 252 264 253 228 238 237 229 222 220 224 228 225 218 204 198 197 192 189 184 178 156 145 135 138 138 134 130 128 132 143 142 136 137 139 141 144 143 138 137 137 129 119
227 237 243 244 228 219 232 250 269 258 235 244 246 237 228 226 228 229 230 220 199 190 187 184 185 183 171 150 137 136 134 142 133 139 134 135 136 138 128 138 146 142 145 149 145 143 134 132 124
244 243 254 258 241 240 244 255 262 262 245 242 242 238 233 234 236 227 220 210 191 184 188 189 185 184 171 166 167 179 195 185 161 156 147 144 144 143 136 134 153 148 154 158 152 142 140 139 138
236 245 257 263 242 248 261 262 261 254 247 244 242 234 235 240 238 232 225 209 202 195 196 200 200 190 188 184 181 191 193 210 186 170 163 159 157 153 152 152 157 157 155 160 160 155 154 155 172
240 245 254 266 279 243 269 262 245 237 233 232 235 237 242 250 251 238 227 224 221 215 213 211 210 201 195 181 152 152 165 176 186 201 188 184 174 165 171 164 157 168 169 173 172 172 173 172 186
251 252 254 261 261 256 238 268 246 226 230 237 237 234 240 253 258 250 233 230 233 235 229 223 217 207 193 179 169 172 198 210 212 207 207 193 182 180 188 173 172 172 178 180 180 180 182 179 183
252 276 258 257 251 259 234 250 260 192 232 236 232 237 244 252 253 249 249 243 237 233 227 222 217 208 195 185 179 185 208 222 220 197 202 192 191 194 191 184 183 181 184 188 185 184 188 193 194
228 256 250 240 239 247 236 230 257 209 224 233 233 236 244 260 264 258 259 266 249 232 222 220 217 213 203 197 192 192 204 209 209 200 207 203 195 195 196 195 198 195 192 197 192 191 193 196 197
221 228 246 234 229 244 195 226 250 220 222 228 242 240 243 264 281 278 280 281 281 262 236 220 218 226 220 210 205 202 205 204 210 212 211 209 202 205 206 205 207 207 206 205 200 195 196 198 201
219 226 240 255 257 269 213 236 246 164 260 255 240 242 273 280 289 294 287 275 272 267 258 236 222 225 226 222 216 213 210 207 218 215 214 217 212 211 211 214 215 212 208 207 204 204 201 199 204
212 220 261 273 281 269 247 255 270 216 256 260 259 245 283 308 311 304 304 298 281 269 259 243 234 231 231 229 221 217 215 213 221 221 221 221 217 213 207 212 218 218 214 214 211 209 205 202 204
256 200 203 231 258 261 263 254 257 235 244 257 276 285 300 313 318 317 314 303 291 278 265 250 236 239 244 238 231 224 221 222 225 222 224 220 214 209 204 208 213 216 216 212 212 214 211 206 209
197 198 222 234 253 260 270 266 299 237 247 258 274 297 304 309 312 310 303 299 299 294 277 250 241 245 249 245 239 236 231 226 226 225 224 219 215 208 207 209 211 213 216 214 212 215 214 210 211
243 228 215 237 242 243 266 270 71 253 293 295 295 300 306 304 302 300 294 295 292 285 279 263 252 250 254 249 242 240 239 232 229 228 228 221 218 215 213 213 213 214 215 215 215 216 218 219 215
Height
1512 1513 1515 1518 1518 1514 1509 1507 1509 1512 1514 1517 1518 1518 1517 1518 1520 1526 1526 1523 1524 1526 1528 1530 1531 1533 1534 1535 1536 1537 1538 1539 1540 1540 1541 1541 1542 1543 1543 1544 1544 1545 1545 1545 1546 1546 1546 1547 1547
1512 1514 1517 1517 1513 1510 1507 1507 1510 1511 1515 1518 1518 1519 1519 1520 1522 1523 1522 1523 1524 1526 1528 1530 1531 1533 1534 1535 1536 1537 1538 1539 1540 1541 1542 1542 1543 1543 1544 1544 1545 1545 1546 1546 1546 1546 1547 1547 1548
1512 1514 1516 1514 1510 1504 1505 1508 1510 1514 1516 1518 1518 1519 1520 1522 1522 1523 1522 1523 1524 1526 1528 1529 1531 1533 1534 1535 1536 1537 1538 1539 1540 1541 1542 1542 1543 1544 1544 1545 1545 1546 1546 1547 1547 1547 1547 1548 1549
1512 1515 1515 1512 1507 1506 1507 1510 1513 1514 1516 1517 1518 1519 1521 1522 1522 1522 1521 1523 1524 1526 1527 1529 1531 1532 1534 1535 1536 1537 1538 1539 1540 1541 1542 1542 1543 1544 1545 1545 1546 1546 1547 1547 1547 1547 1548 1548 1549
1511 1512 1510 1508 1504 1506 1510 1513 1514 1513 1515 1517 1518 1518 1520 1521 1520 1521 1521 1522 1524 1526 1527 1529 1531 1532 1533 1535 1536 1537 1538 1539 1540 1541 1542 1543 1543 1544 1544 1545 1546 1547 1547 1547 1548 1548 1549 1549 1550
1512 1509 1506 1503 1501 1506 1510 1514 1514 1514 1515 1517 1518 1518 1520 1520 1520 1520 1521 1522 1524 1525 1527 1529 1530 1532 1533 1534 1535 1537 1538 1539 1540 1540 1541 1542 1543 1544 1545 1545 1546 1547 1547 1548 1548 1549 1549 1550 1551
1510 1507 1502 1500 1501 1505 1510 1513 1514 1513 1514 1516 1517 1517 1519 1518 1519 1519 1521 1522 1523 1525 1527 1528 1529 1531 1532 1533 1535 1536 1537 1538 1539 1540 1541 1542 1543 1544 1545 1545 1546 1547 1548 1548 1549 1549 1550 1551 1551
1508 1507 1503 1502 1502 1504 1510 1512 1513 1514 1514 1516 1517 1517 1517 1518 1517 1519 1520 1522 1523 1525 1526 1527 1528 1530 1531 1532 1533 1535 1536 1537 1538 1539 1541 1542 1542 1543 1544 1545 1546 1547 1548 1548 1549 1549 1550 1551 1552
1507 1507 1501 1500 1502 1504 1509 1511 1513 1513 1514 1515 1515 1516 1516 1516 1517 1518 1519 1521 1522 1523 1524 1526 1527 1528 1530 1531 1532 1533 1535 1536 1537 1538 1540 1541 1542 1543 1544 1545 1546 1547 1547 1548 1549 1549 1550 1551 1552
1506 1503 1500 1503 1503 1505 1509 1510 1512 1513 1513 1513 1514 1514 1514 1515 1515 1516 1517 1518 1519 1521 1522 1524 1526 1527 1528 1529 1531 1532 1533 1535 1536 1537 1539 1540 1541 1542 1544 1544 1545 1546 1547 1547 1548 1549 1551 1552 1552
1504 1501 1503 1505 1507 1507 1508 1510 1512 1511 1510 1511 1512 1512 1512 1513 1514 1515 1515 1516 1517 1519 1521 1522 1523 1525 1526 1527 1529 1530 1532 1533 1534 1536 1537 1538 1540 1541 1543 1544 1545 1545 1546 1547 1548 1549 1550 1551 1552
1505 1505 1505 1506 1507 1508 1508 1509 1510 1509 1510 1510 1510 1510 1510 1511 1512 1513 1514 1514 1516 1517 1518 1520 1521 1523 1524 1525 1527 1528 1530 1531 1533 1534 1536 1537 1538 1540 1541 1543 1544 1545 1546 1547 1548 1549 1549 1550 1551
1504 1505 1506 1507 1507 1507 1508 1508 1508 1508 1508 1508 1508 1508 1509 1509 1510 1511 1512 1513 1514 1515 1516 1518 1519 1521 1522 1523 1525 1526 1528 1530 1531 1532 1534 1535 1537 1538 1540 1542 1543 1544 1545 1546 1547 1548 1549 1550 1551
1503 1504 1505 1506 1506 1507 1507 1506 1507 1505 1506 1506 1506 1507 1507 1507 1508 1509 1510 1511 1512 1513 1514 1516 1517 1519 1520 1521 1523 1524 1526 1527 1529 1530 1532 1534 1535 1537 1538 1540 1541 1542 1544 1545 1546 1547 1548 1549 1550
1504 1504 1503 1504 1505 1505 1506 1503 1503 1503 1504 1503 1504 1504 1505 1505 1506 1507 1507 1508 1509 1511 1512 1513 1515 1516 1518 1519 1521 1522 1524 1525 1527 1528 1530 1532 1533 1535 1537 1538 1540 1541 1542 1544 1545 1546 1547 1548 1550
1502 1501 1499 1501 1503 1503 1506 1496 1499 1501 1501 1501 1501 1502 1502 1503 1504 1504 1505 1506 1507 1508 1509 1511 1512 1514 1515 1517 1518 1520 1521 1523 1525 1526 1528 1530 1531 1533 1535 1536 1538 1539 1541 1542 1543 1545 1546 1547 1549
1497 1496 1495 1498 1501 1501 1501 1495 1497 1499 1499 1499 1499 1500 1500 1500 1501 1502 1503 1503 1505 1506 1507 1508 1509 1511 1513 1514 1516 1517 1519 1520 1522 1524 1525 1527 1529 1531 1532 1534 1536 1537 1539 1540 1542 1543 1545 1546 1547
1492 1492 1493 1494 1498 1500 1498 1495 1496 1498 1498 1497 1497 1497 1498 1498 1498 1499 1500 1501 1502 1503 1504 1505 1507 1508 1510 1511 1513 1515 1516 1518 1519 1521 1523 1524 1526 1528 1530 1531 1533 1534 1536 1538 1539 1541 1543 1545 1546
1494 1494 1493 1494 1498 1499 1495 1493 1493 1495 1495 1494 1494 1494 1495 1495 1495 1496 1497 1498 1499 1500 1501 1502 1504 1505 1507 1508 1509 1512 1513 1515 1516 1518 1520 1522 1523 1525 1527 1529 1530 1532 1534 1535 1537 1539 1540 1543 1544
1496 1494 1492 1494 1498 1498 1494 1490 1490 1491 1492 1492 1492 1492 1492 1493 1493 1493 1494 1494 1495 1496 1497 1499 1500 1502 1503 1505 1506 1508 1510 1511 1513 1515 1517 1519 1521 1522 1524 1526 1527 1529 1531 1532 1534 1536 1538 1539 1542
1495 1494 1493 1494 1496 1497 1495 1484 1484 1487 1490 1490 1490 1490 1490 1490 1490 1490 1490 1491 1492 1492 1493 1495 1496 1498 1500 1502 1503 1506 1508 1508 1510 1511 1513 1516 1518 1520 1521 1523 1525 1526 1528 1529 1531 1533 1535 1537 1539
1492 1495 1495 1495 1494 1488 1492 1480 1477 1483 1487 1487 1488 1488 1488 1488 1488 1488 1488 1488 1488 1489 1490 1492 1493 1494 1496 1498 1499 1501 1502 1503 1505 1507 1510 1512 1514 1516 1518 1520 1521 1523 1524 1526 1528 1530 1532 1534 1536
1495 1496 1496 1495 1493 1490 1488 1487 1472 1482 1482 1483 1485 1485 1485 1486 1486 1486 1485 1485 1486 1486 1487 1488 1490 1491 1492 1494 1496 1498 1500 1501 1502 1504 1506 1508 1511 1513 1514 1516 1518 1520 1522 1523 1525 1527 1529 1531 1533
1498 1497 1496 1494 1491 1487 1482 1483 1468 1474 1477 1479 1482 1483 1483 1484 1484 1484 1484 1484 1484 1484 1484 1485 1486 1487 1489 1490 1492 1494 1496 1497 1499 1500 1502 1504 1506 1508 1510 1512 1514 1516 1518 1520 1521 1524 1525 1527 1529
1497 1494 1487 1484 1482 1473 1484 1482 1470 1474 1478 1478 1480 1481 1482 1482 1482 1482 1481 1481 1481 1481 1481 1482 1483 1483 1485 1486 1488 1490 1492 1494 1495 1496 1498 1500 1502 1504 1506 1508 1510 1512 1514 1516 1518 1520 1521 1523 1525
1496 1493 1487 1480 1472 1469 1484 1476 1469 1478 1478 1479 1479 1479 1480 1480 1480 1479 1479 1478 1478 1478 1478 1479 1479 1480 1481 1483 1484 1486 1488 1490 1491 1493 1494 1496 1498 1500 1502 1504 1506 1508 1510 1512 1514 1516 1517 1519 1521
1496 1493 1494 1491 1490 1484 1470 1471 1474 1477 1477 1477 1477 1478 1478 1478 1478 1477 1476 1476 1475 1475 1475 1475 1476 1477 1478 1479 1481 1483 1484 1486 1487 1489 1491 1492 1494 1496 1498 1500 1502 1504 1506 1508 1510 1511 1513 1514 1516
1498 1496 1495 1491 1484 1473 1466 1469 1464 1470 1472 1475 1476 1476 1476 1476 1476 1475 1474 1473 1473 1472 1472 1473 1473 1474 1475 1476 1478 1479 1481 1482 1484 1485 1486 1488 1490 1492 1494 1496 1498 1500 1502 1504 1505 1507 1508 1510 1511
1498 1498 1494 1490 1489 1478 1468 1463 1468 1470 1472 1474 1475 1475 1475 1475 1473 1472 1472 1471 1470 1469 1469 1469 1470 1470 1471 1472 1474 1475 1476 1478 1479 1480 1481 1483 1485 1487 1489 1491 1493 1495 1497 1499 1501 1502 1503 1505 1506
1498 1495 1494 1490 1488 1488 1478 1469 1473 1473 1474 1475 1475 1475 1474 1473 1472 1471 1470 1468 1467 1467 1466 1466 1466 1467 1468 1469 1470 1471 1471 1473 1474 1475 1477 1478 1480 1482 1484 1486 1488 1490 1492 1494 1495 1497 1498 1500 1501